| time (UTC) | temp C | wind direction | speed KPH | gust KPH | rain 1hr cm | rain 24hr cm | rain mn cm | humidity % | barometer mb |
| 20260506143055 | 12 | 16 | 3.2 | 8.0 | 0.00 | 0.00 | 0.00 | 80 | 1016.8 |
| 20260506142553 | 12 | 18 | 3.2 | 8.0 | 0.00 | 0.00 | 0.00 | 81 | 1016.8 |
| 20260506142054 | 12 | 7 | 1.6 | 8.0 | 0.00 | 0.00 | 0.00 | 82 | 1016.8 |
| 20260506141554 | 12 | 330 | 4.8 | 8.0 | 0.00 | 0.00 | 0.00 | 82 | 1016.8 |
| 20260506141053 | 12 | 16 | 4.8 | 8.0 | 0.00 | 0.00 | 0.00 | 83 | 1016.7 |
| 20260506140554 | 12 | 22 | 4.8 | 8.0 | 0.00 | 0.00 | 0.00 | 83 | 1016.7 |
| 20260506140052 | 12 | 4 | 1.6 | 4.8 | 0.00 | 0.00 | 0.00 | 84 | 1016.7 |
| 20260506135554 | 12 | 267 | 0.0 | 8.0 | 0.00 | 0.00 | 0.00 | 84 | 1016.7 |
| 20260506135053 | 12 | 289 | 1.6 | 8.0 | 0.00 | 0.00 | 0.00 | 84 | 1016.6 |
| 20260506134552 | 12 | 340 | 4.8 | 8.0 | 0.00 | 0.00 | 0.00 | 85 | 1016.6 |
| 20260506134052 | 12 | 271 | 0.0 | 8.0 | 0.00 | 0.00 | 0.00 | 85 | 1016.6 |
| 20260506133826 | 12 | 318 | 4.8 | 9.7 | 0.00 | 0.00 | 0.00 | 85 | 1016.5 |
| 20260506133053 | 12 | 10 | 3.2 | 9.7 | 0.00 | 0.00 | 0.00 | 85 | 1016.5 |
| 20260506132811 | 12 | 327 | 3.2 | 8.0 | 0.00 | 0.00 | 0.00 | 84 | 1016.3 |
| 20260506132051 | 12 | 226 | 0.0 | 4.8 | 0.00 | 0.00 | 0.00 | 84 | 1016.4 |
| 20260506131552 | 12 | 307 | 3.2 | 4.8 | 0.00 | 0.00 | 0.00 | 84 | 1016.3 |
| 20260506131052 | 12 | 278 | 0.0 | 4.8 | 0.00 | 0.00 | 0.00 | 84 | 1016.3 |
| 20260506130551 | 12 | 286 | 1.6 | 4.8 | 0.00 | 0.00 | 0.00 | 84 | 1016.3 |
| 20260506130319 | 12 | 356 | 1.6 | 12.9 | 0.00 | 0.00 | 0.00 | 84 | 1016.1 |
| 20260506125553 | 12 | 327 | 3.2 | 12.9 | 0.00 | 0.00 | 0.00 | 84 | 1016.2 |
| 20260506125052 | 12 | 280 | 1.6 | 1.6 | 0.00 | 0.00 | 0.00 | 83 | 1016.1 |
| 20260506124550 | 12 | 260 | 0.0 | 3.2 | 0.00 | 0.00 | 0.00 | 83 | 1016.0 |
| 20260506124050 | 12 | 263 | 0.0 | 4.8 | 0.00 | 0.00 | 0.00 | 82 | 1016.1 |
| 20260506123553 | 12 | 230 | 3.2 | 4.8 | 0.00 | 0.00 | 0.00 | 82 | 1016.1 |
| 20260506123052 | 12 | 217 | 1.6 | 4.8 | 0.00 | 0.00 | 0.00 | 82 | 1016.0 |
| 20260506122551 | 12 | 304 | 0.0 | 9.7 | 0.00 | 0.00 | 0.00 | 82 | 1016.0 |
| 20260506122050 | 12 | 339 | 1.6 | 11.3 | 0.00 | 0.00 | 0.00 | 83 | 1016.0 |
| 20260506121550 | 12 | 358 | 4.8 | 11.3 | 0.00 | 0.00 | 0.00 | 82 | 1016.0 |
| 20260506121052 | 13 | 267 | 1.6 | 3.2 | 0.00 | 0.00 | 0.00 | 81 | 1015.9 |
| 20260506120811 | 13 | 236 | 1.6 | 8.0 | 0.00 | 0.00 | 0.00 | 81 | 1015.8 |
| 20260506120050 | 13 | 304 | 1.6 | 8.0 | 0.00 | 0.00 | 0.00 | 81 | 1015.9 |
| 20260506115550 | 13 | 33 | 6.4 | 8.0 | 0.00 | 0.00 | 0.00 | 81 | 1015.9 |
| 20260506115051 | 13 | 268 | 0.0 | 3.2 | 0.00 | 0.00 | 0.00 | 79 | 1015.9 |
| 20260506114549 | 13 | 206 | 1.6 | 3.2 | 0.00 | 0.00 | 0.00 | 80 | 1015.8 |
| 20260506114049 | 13 | 219 | 3.2 | 9.7 | 0.00 | 0.00 | 0.00 | 80 | 1015.8 |
| 20260506113550 | 13 | 348 | 4.8 | 9.7 | 0.00 | 0.00 | 0.00 | 81 | 1015.9 |
| 20260506113050 | 13 | 16 | 3.2 | 8.0 | 0.00 | 0.00 | 0.00 | 81 | 1016.0 |
| 20260506112550 | 13 | 230 | 1.6 | 3.2 | 0.00 | 0.00 | 0.00 | 78 | 1015.9 |
| 20260506112050 | 13 | 252 | 0.0 | 3.2 | 0.00 | 0.00 | 0.00 | 78 | 1015.9 |
| 20260506111549 | 13 | 186 | 3.2 | 3.2 | 0.00 | 0.00 | 0.00 | 78 | 1015.9 |
| 20260506111050 | 13 | 275 | 0.0 | 4.8 | 0.00 | 0.00 | 0.00 | 80 | 1015.9 |
| 20260506110550 | 13 | 289 | 0.0 | 8.0 | 0.00 | 0.00 | 0.00 | 81 | 1015.9 |
| 20260506105548 | 13 | 257 | 0.0 | 4.8 | 0.00 | 0.00 | 0.00 | 81 | 1015.9 |
| 20260506105051 | 13 | 324 | 4.8 | 4.8 | 0.00 | 0.00 | 0.00 | 81 | 1015.9 |
| 20260506104549 | 13 | 265 | 0.0 | 4.8 | 0.00 | 0.00 | 0.00 | 81 | 1015.8 |
| 20260506104308 | 13 | 268 | 0.0 | 4.8 | 0.00 | 0.00 | 0.00 | 81 | 1015.9 |
| 20260506103547 | 13 | 290 | 0.0 | 4.8 | 0.00 | 0.00 | 0.00 | 80 | 1015.7 |
| 20260506103312 | 13 | 275 | 3.2 | 3.2 | 0.00 | 0.00 | 0.00 | 79 | 1015.7 |
| 20260506102550 | 13 | 196 | 3.2 | 9.7 | 0.00 | 0.00 | 0.00 | 78 | 1015.7 |
| 20260506102047 | 13 | 267 | 0.0 | 9.7 | 0.00 | 0.00 | 0.00 | 81 | 1015.8 |
| 20260506101547 | 13 | 25 | 4.8 | 8.0 | 0.00 | 0.00 | 0.00 | 81 | 1015.8 |
| 20260506101048 | 13 | 4 | 3.2 | 3.2 | 0.00 | 0.00 | 0.00 | 81 | 1015.7 |
| 20260506100547 | 13 | 261 | 0.0 | 0.0 | 0.00 | 0.00 | 0.00 | 79 | 1015.7 |
| 20260506095948 | 13 | 244 | 1.6 | 3.2 | 0.00 | 0.30 | 0.00 | 80 | 1015.6 |
| 20260506095448 | 13 | 300 | 0.0 | 3.2 | 0.00 | 0.30 | 0.00 | 80 | 1015.6 |
| 20260506094950 | 13 | 229 | 0.0 | 4.8 | 0.00 | 0.30 | 0.00 | 78 | 1015.6 |
| 20260506094713 | 13 | 154 | 3.2 | 8.0 | 0.00 | 0.30 | 0.00 | 78 | 1015.6 |
| 20260506094207 | 13 | 337 | 0.0 | 8.0 | 0.00 | 0.30 | 0.00 | 81 | 1015.5 |
| 20260506092949 | 13 | 265 | 0.0 | 8.0 | 0.00 | 0.30 | 0.00 | 80 | 1015.5 |
| 20260506092449 | 13 | 316 | 1.6 | 8.0 | 0.00 | 0.30 | 0.00 | 81 | 1015.6 |
| 20260506091947 | 13 | 21 | 3.2 | 4.8 | 0.00 | 0.30 | 0.00 | 81 | 1015.6 |
| 20260506091447 | 13 | 337 | 1.6 | 4.8 | 0.00 | 0.30 | 0.00 | 81 | 1015.6 |
| 20260506090948 | 13 | 307 | 3.2 | 3.2 | 0.00 | 0.30 | 0.00 | 81 | 1015.7 |
| 20260506090449 | 13 | 268 | 0.0 | 4.8 | 0.00 | 0.30 | 0.00 | 81 | 1015.8 |
| 20260506085947 | 13 | 353 | 1.6 | 4.8 | 0.00 | 0.30 | 0.00 | 81 | 1015.7 |
| 20260506085448 | 13 | 253 | 0.0 | 0.0 | 0.00 | 0.30 | 0.00 | 79 | 1015.9 |
| 20260506084948 | 13 | 249 | 0.0 | 0.0 | 0.00 | 0.30 | 0.00 | 80 | 1016.0 |
| 20260506084449 | 13 | 272 | 0.0 | 1.6 | 0.00 | 0.30 | 0.00 | 80 | 1016.1 |
| 20260506083947 | 13 | 273 | 0.0 | 3.2 | 0.00 | 0.30 | 0.00 | 78 | 1016.0 |
| 20260506083445 | 13 | 250 | 0.0 | 3.2 | 0.00 | 0.30 | 0.00 | 77 | 1016.1 |
| 20260506082947 | 13 | 243 | 1.6 | 1.6 | 0.00 | 0.30 | 0.00 | 78 | 1016.1 |
| 20260506082448 | 13 | 242 | 1.6 | 1.6 | 0.00 | 0.30 | 0.00 | 78 | 1016.2 |
| 20260506081946 | 13 | 272 | 0.0 | 0.0 | 0.00 | 0.30 | 0.00 | 78 | 1016.2 |
| 20260506081447 | 13 | 273 | 0.0 | 1.6 | 0.00 | 0.30 | 0.00 | 78 | 1016.2 |
| 20260506080949 | 13 | 282 | 0.0 | 1.6 | 0.00 | 0.30 | 0.00 | 78 | 1016.3 |
| 20260506080447 | 13 | 281 | 1.6 | 1.6 | 0.00 | 0.30 | 0.00 | 78 | 1016.3 |
| 20260506073445 | 14 | 266 | 0.0 | 3.2 | 0.00 | 0.30 | 0.00 | 77 | 1016.4 |
| 20260506072944 | 14 | 276 | 1.6 | 4.8 | 0.00 | 0.30 | 0.00 | 76 | 1016.5 |
| 20260506072447 | 14 | 330 | 4.8 | 4.8 | 0.00 | 0.30 | 0.00 | 76 | 1016.5 |
| 20260506071945 | 14 | 282 | 0.0 | 3.2 | 0.00 | 0.30 | 0.00 | 76 | 1016.5 |
| 20260506071446 | 14 | 303 | 0.0 | 3.2 | 0.00 | 0.30 | 0.00 | 75 | 1016.4 |
| 20260506070944 | 14 | 265 | 0.0 | 1.6 | 0.00 | 0.30 | 0.00 | 75 | 1016.5 |
| 20260506070708 | 14 | 287 | 0.0 | 4.8 | 0.00 | 0.30 | 0.00 | 75 | 1016.4 |
| 20260506062446 | 15 | 270 | 0.0 | 0.0 | 0.00 | 0.30 | 0.51 | 74 | 1016.1 |
| 20260506061945 | 15 | 270 | 0.0 | 0.0 | 0.00 | 0.30 | 0.51 | 73 | 1016.1 |
| 20260506061443 | 15 | 271 | 0.0 | 0.0 | 0.00 | 0.30 | 0.51 | 73 | 1016.1 |
| 20260506060943 | 15 | 263 | 0.0 | 3.2 | 0.00 | 0.30 | 0.51 | 73 | 1016.1 |
| 20260506060445 | 15 | 263 | 0.0 | 3.2 | 0.00 | 0.30 | 0.51 | 73 | 1016.1 |
| 20260506050943 | 15 | 265 | 1.6 | 8.0 | 0.00 | 0.30 | 0.51 | 72 | 1016.0 |
| 20260506050444 | 15 | 263 | 3.2 | 8.0 | 0.00 | 0.30 | 0.51 | 73 | 1016.0 |
| 20260506044441 | 15 | 248 | 0.0 | 4.8 | 0.00 | 0.30 | 0.51 | 73 | 1015.8 |
| 20260506043943 | 15 | 254 | 0.0 | 8.0 | 0.00 | 0.30 | 0.51 | 72 | 1015.8 |
| 20260506043445 | 15 | 268 | 3.2 | 8.0 | 0.00 | 0.30 | 0.51 | 73 | 1015.8 |
| 20260506042941 | 15 | 286 | 4.8 | 8.0 | 0.00 | 0.30 | 0.51 | 72 | 1015.8 |
| 20260506042709 | 15 | 286 | 6.4 | 11.3 | 0.00 | 0.30 | 0.51 | 72 | 1015.8 |
| 20260506041943 | 15 | 282 | 1.6 | 11.3 | 0.00 | 0.30 | 0.51 | 73 | 1015.6 |
| 20260506041442 | 15 | 309 | 6.4 | 9.7 | 0.00 | 0.30 | 0.51 | 72 | 1015.5 |
| 20260506040941 | 15 | 268 | 3.2 | 9.7 | 0.00 | 0.30 | 0.51 | 72 | 1015.5 |
| 20260506040441 | 15 | 262 | 3.2 | 9.7 | 0.00 | 0.30 | 0.51 | 72 | 1015.4 |
| 20260506035942 | 15 | 315 | 8.0 | 9.7 | 0.00 | 0.30 | 0.51 | 72 | 1015.3 |
| 20260506035441 | 15 | 283 | 0.0 | 9.7 | 0.00 | 0.30 | 0.51 | 72 | 1015.3 |
| 20260506034941 | 15 | 320 | 6.4 | 9.7 | 0.00 | 0.30 | 0.51 | 72 | 1015.2 |
| 20260506034703 | 15 | 249 | 8.0 | 12.9 | 0.00 | 0.30 | 0.51 | 71 | 1015.1 |
| 20260506033942 | 15 | 224 | 4.8 | 12.9 | 0.00 | 0.30 | 0.51 | 70 | 1015.1 |
| 20260506033443 | 15 | 275 | 3.2 | 12.9 | 0.00 | 0.30 | 0.51 | 70 | 1015.0 |
| 20260506032941 | 15 | 290 | 4.8 | 14.5 | 0.00 | 0.30 | 0.51 | 70 | 1015.0 |
| 20260506032440 | 15 | 352 | 8.0 | 14.5 | 0.00 | 0.30 | 0.51 | 71 | 1014.8 |
| 20260506031942 | 15 | 332 | 9.7 | 12.9 | 0.00 | 0.30 | 0.51 | 71 | 1014.8 |
| 20260506031441 | 15 | 265 | 3.2 | 14.5 | 0.00 | 0.30 | 0.51 | 70 | 1014.8 |
| 20260506030938 | 15 | 342 | 11.3 | 14.5 | 0.00 | 0.30 | 0.51 | 70 | 1014.7 |
| 20260506030440 | 15 | 257 | 4.8 | 12.9 | 0.00 | 0.30 | 0.51 | 70 | 1014.6 |
| 20260506025941 | 15 | 335 | 4.8 | 16.1 | 0.00 | 0.30 | 0.51 | 70 | 1014.6 |
| 20260506025439 | 15 | 262 | 3.2 | 16.1 | 0.00 | 0.30 | 0.51 | 70 | 1014.5 |
| 20260506024938 | 15 | 311 | 6.4 | 14.5 | 0.00 | 0.30 | 0.51 | 71 | 1014.4 |
| 20260506024441 | 15 | 275 | 4.8 | 16.1 | 0.00 | 0.30 | 0.51 | 71 | 1014.4 |
| 20260506023939 | 15 | 306 | 11.3 | 16.1 | 0.00 | 0.30 | 0.51 | 71 | 1014.3 |
| 20260506023440 | 15 | 278 | 6.4 | 12.9 | 0.00 | 0.30 | 0.51 | 71 | 1014.3 |
| 20260506022939 | 15 | 257 | 3.2 | 14.5 | 0.00 | 0.30 | 0.51 | 71 | 1014.2 |
| 20260506021940 | 16 | 307 | 9.7 | 19.3 | 0.00 | 0.30 | 0.51 | 70 | 1014.1 |
| 20260506021441 | 16 | 330 | 4.8 | 19.3 | 0.00 | 0.30 | 0.51 | 69 | 1014.0 |
| 20260506020938 | 16 | 314 | 9.7 | 20.9 | 0.00 | 0.30 | 0.51 | 69 | 1014.0 |
| 20260506020438 | 16 | 342 | 11.3 | 20.9 | 0.00 | 0.30 | 0.51 | 69 | 1013.9 |
| 20260506015940 | 16 | 287 | 8.0 | 16.1 | 0.00 | 0.30 | 0.51 | 68 | 1013.9 |
| 20260506015440 | 16 | 275 | 1.6 | 16.1 | 0.00 | 0.30 | 0.51 | 68 | 1013.9 |
| 20260506014939 | 16 | 15 | 4.8 | 24.1 | 0.00 | 0.30 | 0.51 | 68 | 1013.8 |
| 20260506014654 | 16 | 297 | 9.7 | 24.1 | 0.00 | 0.30 | 0.51 | 69 | 1013.7 |
| 20260506014159 | 16 | 249 | 6.4 | 19.3 | 0.00 | 0.30 | 0.51 | 66 | 1013.8 |
| 20260506013439 | 16 | 336 | 14.5 | 19.3 | 0.00 | 0.30 | 0.51 | 66 | 1013.7 |
| 20260506012937 | 16 | 259 | 6.4 | 24.1 | 0.00 | 0.30 | 0.51 | 66 | 1013.8 |
| 20260506012437 | 16 | 340 | 12.9 | 24.1 | 0.00 | 0.30 | 0.51 | 67 | 1013.7 |
| 20260506011937 | 16 | 312 | 9.7 | 16.1 | 0.00 | 0.30 | 0.51 | 66 | 1013.6 |
| 20260506011438 | 16 | 356 | 12.9 | 19.3 | 0.00 | 0.30 | 0.51 | 66 | 1013.6 |
| 20260506011200 | 16 | 307 | 11.3 | 20.9 | 0.00 | 0.30 | 0.51 | 64 | 1013.7 |
| 20260506010437 | 16 | 331 | 3.2 | 20.9 | 0.00 | 0.30 | 0.51 | 64 | 1013.7 |
| 20260506005938 | 16 | 341 | 11.3 | 22.5 | 0.00 | 0.30 | 0.51 | 66 | 1013.7 |
| 20260506005438 | 17 | 342 | 12.9 | 22.5 | 0.00 | 0.30 | 0.51 | 66 | 1013.7 |
| 20260506004938 | 17 | 297 | 14.5 | 24.1 | 0.00 | 0.30 | 0.51 | 63 | 1013.6 |
| 20260506004437 | 17 | 303 | 6.4 | 25.7 | 0.00 | 0.30 | 0.51 | 63 | 1013.6 |
| 20260506003936 | 17 | 311 | 14.5 | 25.7 | 0.00 | 0.30 | 0.51 | 63 | 1013.6 |
| 20260506003437 | 17 | 318 | 9.7 | 25.7 | 0.00 | 0.30 | 0.51 | 63 | 1013.5 |
| 20260506002939 | 17 | 280 | 11.3 | 27.4 | 0.00 | 0.30 | 0.51 | 61 | 1013.6 |
| 20260506002438 | 17 | 345 | 20.9 | 27.4 | 0.00 | 0.30 | 0.51 | 63 | 1013.5 |
| 20260506001937 | 17 | 298 | 6.4 | 24.1 | 0.00 | 0.30 | 0.51 | 64 | 1013.4 |
| 20260506001440 | 17 | 310 | 14.5 | 22.5 | 0.00 | 0.30 | 0.51 | 65 | 1013.4 |
| 20260506000937 | 17 | 308 | 9.7 | 22.5 | 0.00 | 0.30 | 0.51 | 64 | 1013.5 |
| 20260505235936 | 17 | 305 | 6.4 | 24.1 | 0.00 | 0.30 | 0.51 | 66 | 1013.4 |
| 20260505235438 | 17 | 292 | 12.9 | 16.1 | 0.00 | 0.30 | 0.51 | 62 | 1013.4 |
| 20260505234937 | 17 | 307 | 8.0 | 16.1 | 0.00 | 0.30 | 0.51 | 62 | 1013.6 |
| 20260505234435 | 17 | 281 | 4.8 | 24.1 | 0.00 | 0.30 | 0.51 | 59 | 1013.5 |
| 20260505233436 | 17 | 302 | 12.9 | 20.9 | 0.00 | 0.30 | 0.51 | 61 | 1013.5 |
| 20260505232936 | 17 | 265 | 3.2 | 20.9 | 0.00 | 0.30 | 0.51 | 58 | 1013.5 |
| 20260505232435 | 17 | 297 | 9.7 | 20.9 | 0.00 | 0.30 | 0.51 | 57 | 1013.6 |
| 20260505231936 | 17 | 345 | 8.0 | 19.3 | 0.00 | 0.30 | 0.51 | 58 | 1013.5 |
| 20260505231437 | 18 | 272 | 9.7 | 19.3 | 0.00 | 0.30 | 0.51 | 58 | 1013.6 |
| 20260505230936 | 18 | 213 | 9.7 | 22.5 | 0.00 | 0.30 | 0.51 | 60 | 1013.5 |
| 20260505230436 | 18 | 337 | 14.5 | 22.5 | 0.00 | 0.30 | 0.51 | 59 | 1013.6 |
| 20260505225934 | 18 | 318 | 6.4 | 25.7 | 0.00 | 0.30 | 0.51 | 55 | 1013.6 |
| 20260505225436 | 18 | 334 | 9.7 | 25.7 | 0.00 | 0.30 | 0.51 | 60 | 1013.5 |
| 20260505224936 | 18 | 254 | 9.7 | 24.1 | 0.00 | 0.30 | 0.51 | 55 | 1013.6 |
| 20260505224434 | 18 | 267 | 3.2 | 24.1 | 0.00 | 0.30 | 0.51 | 60 | 1013.6 |
| 20260505223935 | 18 | 285 | 9.7 | 20.9 | 0.00 | 0.30 | 0.51 | 57 | 1013.7 |
| 20260505223435 | 17 | 267 | 14.5 | 20.9 | 0.00 | 0.30 | 0.51 | 57 | 1013.9 |
| 20260505222935 | 17 | 318 | 4.8 | 22.5 | 0.00 | 0.30 | 0.51 | 58 | 1013.8 |
| 20260505222435 | 17 | 308 | 6.4 | 22.5 | 0.00 | 0.30 | 0.51 | 63 | 1013.8 |
| 20260505222152 | 17 | 250 | 6.4 | 25.7 | 0.00 | 0.30 | 0.51 | 60 | 1013.9 |
| 20260505221433 | 17 | 26 | 16.1 | 25.7 | 0.00 | 0.30 | 0.51 | 59 | 1013.9 |
| 20260505220934 | 17 | 334 | 8.0 | 29.0 | 0.00 | 0.30 | 0.51 | 57 | 1014.0 |
| 20260505220654 | 17 | 287 | 8.0 | 33.8 | 0.00 | 0.30 | 0.51 | 59 | 1014.0 |
| 20260505215933 | 17 | 326 | 11.3 | 33.8 | 0.00 | 0.30 | 0.51 | 61 | 1014.0 |
| 20260505215434 | 18 | 277 | 4.8 | 25.7 | 0.00 | 0.30 | 0.51 | 63 | 1014.0 |
| 20260505214935 | 18 | 337 | 11.3 | 27.4 | 0.00 | 0.30 | 0.51 | 60 | 1014.0 |
| 20260505214657 | 17 | 289 | 11.3 | 27.4 | 0.00 | 0.30 | 0.51 | 60 | 1014.0 |
| 20260505213933 | 17 | 350 | 6.4 | 29.0 | 0.00 | 0.30 | 0.51 | 58 | 1014.0 |
| 20260505213701 | 17 | 334 | 14.5 | 29.0 | 0.00 | 0.30 | 0.51 | 59 | 1014.0 |
| 20260505212934 | 17 | 340 | 8.0 | 19.3 | 0.00 | 0.30 | 0.51 | 58 | 1014.2 |
| 20260505212435 | 17 | 260 | 1.6 | 22.5 | 0.00 | 0.30 | 0.51 | 55 | 1014.1 |
| 20260505211932 | 17 | 305 | 12.9 | 25.7 | 0.00 | 0.30 | 0.51 | 57 | 1014.2 |
| 20260505211432 | 17 | 319 | 12.9 | 29.0 | 0.00 | 0.30 | 0.51 | 63 | 1014.2 |
| 20260505210933 | 17 | 351 | 14.5 | 29.0 | 0.00 | 0.30 | 0.51 | 64 | 1014.3 |
| 20260505210433 | 17 | 353 | 16.1 | 25.7 | 0.00 | 0.30 | 0.51 | 65 | 1014.3 |
| 20260505205932 | 17 | 11 | 14.5 | 29.0 | 0.00 | 0.30 | 0.51 | 64 | 1014.4 |
| 20260505204934 | 17 | 262 | 8.0 | 24.1 | 0.00 | 0.30 | 0.51 | 66 | 1014.3 |
| 20260505204433 | 17 | 291 | 8.0 | 29.0 | 0.00 | 0.30 | 0.51 | 62 | 1014.3 |
| 20260505204154 | 17 | 298 | 4.8 | 29.0 | 0.00 | 0.30 | 0.51 | 63 | 1014.3 |
| 20260505203431 | 17 | 233 | 6.4 | 29.0 | 0.00 | 0.30 | 0.51 | 64 | 1014.4 |
| 20260505202934 | 17 | 335 | 22.5 | 29.0 | 0.00 | 0.30 | 0.51 | 60 | 1014.4 |
| 20260505201932 | 17 | 260 | 6.4 | 24.1 | 0.00 | 0.30 | 0.51 | 60 | 1014.4 |
| 20260505201431 | 17 | 294 | 19.3 | 24.1 | 0.00 | 0.30 | 0.51 | 59 | 1014.4 |
| 20260505200933 | 17 | 346 | 11.3 | 24.1 | 0.00 | 0.30 | 0.51 | 58 | 1014.5 |
| 20260505200432 | 17 | 306 | 12.9 | 29.0 | 0.00 | 0.30 | 0.51 | 64 | 1014.5 |
| 20260505195932 | 17 | 334 | 17.7 | 29.0 | 0.00 | 0.30 | 0.51 | 66 | 1014.4 |
| 20260505195432 | 17 | 253 | 9.7 | 25.7 | 0.00 | 0.30 | 0.51 | 65 | 1014.6 |
| 20260505194931 | 17 | 320 | 14.5 | 25.7 | 0.00 | 0.30 | 0.51 | 65 | 1014.4 |
| 20260505194432 | 17 | 303 | 12.9 | 25.7 | 0.00 | 0.30 | 0.51 | 66 | 1014.7 |
| 20260505193930 | 17 | 276 | 12.9 | 25.7 | 0.00 | 0.30 | 0.51 | 65 | 1014.6 |
| 20260505193651 | 17 | 348 | 11.3 | 24.1 | 0.00 | 0.30 | 0.51 | 64 | 1014.6 |
| 20260505192930 | 17 | 347 | 16.1 | 24.1 | 0.00 | 0.30 | 0.51 | 64 | 1014.6 |
| 20260505192431 | 17 | 265 | 12.9 | 24.1 | 0.00 | 0.30 | 0.51 | 66 | 1014.7 |
| 20260505191930 | 17 | 264 | 4.8 | 24.1 | 0.00 | 0.30 | 0.51 | 69 | 1014.6 |
| 20260505190930 | 17 | 349 | 6.4 | 27.4 | 0.00 | 0.30 | 0.51 | 66 | 1014.6 |
| 20260505190652 | 17 | 274 | 6.4 | 20.9 | 0.00 | 0.30 | 0.51 | 65 | 1014.7 |
| 20260505190204 | 17 | 337 | 11.3 | 20.9 | 0.00 | 0.30 | 0.51 | 64 | 1014.7 |
| 20260505185431 | 17 | 257 | 8.0 | 22.5 | 0.00 | 0.30 | 0.51 | 64 | 1014.6 |
| 20260505184931 | 17 | 341 | 9.7 | 27.4 | 0.00 | 0.30 | 0.51 | 66 | 1014.6 |
| 20260505184431 | 17 | 332 | 12.9 | 27.4 | 0.00 | 0.30 | 0.51 | 67 | 1014.5 |
| 20260505183931 | 17 | 298 | 11.3 | 19.3 | 0.00 | 0.30 | 0.51 | 66 | 1014.7 |
| 20260505183430 | 17 | 310 | 8.0 | 22.5 | 0.00 | 0.30 | 0.51 | 67 | 1014.6 |
| 20260505183152 | 17 | 291 | 6.4 | 22.5 | 0.00 | 0.30 | 0.51 | 64 | 1014.6 |
| 20260505182658 | 17 | 324 | 9.7 | 19.3 | 0.00 | 0.30 | 0.51 | 66 | 1014.7 |
| 20260505181930 | 17 | 258 | 4.8 | 19.3 | 0.00 | 0.30 | 0.51 | 65 | 1014.5 |
| 20260505181428 | 16 | 272 | 14.5 | 22.5 | 0.00 | 0.30 | 0.51 | 65 | 1014.6 |
| 20260505180931 | 16 | 226 | 8.0 | 25.7 | 0.00 | 0.30 | 0.51 | 64 | 1014.5 |
| 20260505180656 | 16 | 332 | 14.5 | 25.7 | 0.00 | 0.30 | 0.51 | 65 | 1014.4 |
| 20260505175930 | 16 | 263 | 9.7 | 25.7 | 0.00 | 0.30 | 0.51 | 67 | 1014.5 |
| 20260505175429 | 16 | 355 | 12.9 | 25.7 | 0.00 | 0.30 | 0.51 | 71 | 1014.5 |
| 20260505174930 | 16 | 241 | 4.8 | 19.3 | 0.00 | 0.30 | 0.51 | 71 | 1014.4 |
| 20260505174431 | 16 | 233 | 14.5 | 20.9 | 0.00 | 0.30 | 0.51 | 69 | 1014.2 |
| 20260505173929 | 16 | 271 | 11.3 | 27.4 | 0.00 | 0.30 | 0.51 | 69 | 1014.2 |
| 20260505173649 | 16 | 326 | 19.3 | 27.4 | 0.00 | 0.30 | 0.51 | 70 | 1014.1 |
| 20260505172930 | 16 | 305 | 9.7 | 25.7 | 0.00 | 0.30 | 0.51 | 68 | 1014.1 |
| 20260505172429 | 16 | 349 | 11.3 | 25.7 | 0.00 | 0.30 | 0.51 | 71 | 1014.1 |
| 20260505172148 | 15 | 339 | 17.7 | 24.1 | 0.00 | 0.30 | 0.51 | 73 | 1014.1 |
| 20260505171429 | 15 | 279 | 3.2 | 22.5 | 0.00 | 0.30 | 0.51 | 75 | 1014.0 |
| 20260505170928 | 15 | 280 | 14.5 | 25.7 | 0.00 | 0.30 | 0.51 | 71 | 1014.0 |
| 20260505170429 | 15 | 333 | 8.0 | 25.7 | 0.00 | 0.30 | 0.51 | 74 | 1014.0 |
| 20260505170146 | 15 | 337 | 9.7 | 22.5 | 0.00 | 0.30 | 0.51 | 71 | 1014.0 |
| 20260505165427 | 15 | 281 | 9.7 | 25.7 | 0.00 | 0.30 | 0.51 | 73 | 1014.0 |
| 20260505164926 | 15 | 276 | 11.3 | 25.7 | 0.00 | 0.30 | 0.51 | 75 | 1013.9 |
| 20260505164427 | 15 | 319 | 11.3 | 22.5 | 0.00 | 0.30 | 0.51 | 74 | 1013.8 |
| 20260505163931 | 15 | 283 | 11.3 | 24.1 | 0.00 | 0.30 | 0.51 | 75 | 1013.7 |
| 20260505163427 | 15 | 310 | 8.0 | 24.1 | 0.00 | 0.30 | 0.51 | 78 | 1013.7 |
| 20260505162928 | 15 | 344 | 17.7 | 24.1 | 0.00 | 0.30 | 0.51 | 76 | 1013.6 |
| 20260505162427 | 15 | 348 | 3.2 | 16.1 | 0.00 | 0.30 | 0.51 | 78 | 1013.6 |
| 20260505161427 | 15 | 324 | 8.0 | 11.3 | 0.00 | 0.30 | 0.51 | 80 | 1013.5 |
| 20260505160926 | 15 | 332 | 1.6 | 9.7 | 0.00 | 0.30 | 0.51 | 83 | 1013.4 |
| 20260505160426 | 15 | 226 | 1.6 | 9.7 | 0.00 | 0.30 | 0.51 | 80 | 1013.5 |
| 20260505153152 | 13 | 333 | 4.8 | 8.0 | 0.00 | 0.30 | 0.51 | 87 | 1013.2 |
| 20260505152653 | 13 | 259 | 0.0 | 1.6 | 0.00 | 0.30 | 0.51 | 89 | 1013.3 |
| 20260505151927 | 13 | 285 | 0.0 | 3.2 | 0.00 | 0.30 | 0.51 | 90 | 1013.3 |
| 20260505151425 | 13 | 263 | 0.0 | 3.2 | 0.00 | 0.30 | 0.51 | 90 | 1013.3 |
| 20260505150926 | 12 | 305 | 0.0 | 3.2 | 0.00 | 0.30 | 0.51 | 90 | 1013.3 |
| 20260505150425 | 12 | 275 | 0.0 | 3.2 | 0.03 | 0.30 | 0.51 | 90 | 1013.2 |